When you browse on this site, cookies collect data to enhance your experience and personalize the content and advertising you see.
Visit our Privacy Policy to learn more. By continuing to use the site, you agree to this use of cookies and data.
  • In Deutschland
  • Länderverzeichnis
  • Für 7 Tage
  • Wassertemperatur
  • Satellitenkarten
  • Wetterkarte
  • Widgets
  • user-avatar
    Anmelden

    Stündliche Wetter Sidi Bu-l-Abbas

    Heute, 25 April, Donnerstag

    Zeit Temperatur Niederschläge Wind Luftdruck Luftfeuchtigkeit
    00:00 +13°C° 0 mm 0 m/S 719 mmHg 71%
    01:00 +12°C° 0 mm 0 m/S 719 mmHg 72%
    02:00 +12°C° 0 mm 0 m/S 719 mmHg 72%
    03:00 +11°C° 0 mm 0 m/S 719 mmHg 73%
    04:00 +12°C° 0 mm 0 m/S 719 mmHg 72%
    05:00 +13°C° 0 mm 1 m/S 719 mmHg 71%
    06:00 +14°C° 0 mm 1 m/S 719 mmHg 70%
    07:00 +16°C° 0 mm 1 m/S 720 mmHg 61%
    08:00 +19°C° 0 mm 1 m/S 720 mmHg 51%
    09:00 +22°C° 0 mm 1 m/S 720 mmHg 41%
    10:00 +23°C° 0 mm 2 m/S 721 mmHg 38%
    11:00 +24°C° 0 mm 3 m/S 721 mmHg 35%
    12:00 +26°C° 0 mm 4 m/S 721 mmHg 32%
    13:00 +25°C° 0 mm 5 m/S 721 mmHg 34%
    14:00 +24°C° 0 mm 6 m/S 720 mmHg 36%
    15:00 +24°C° 0 mm 6 m/S 720 mmHg 38%
    16:00 +22°C° 0 mm 6 m/S 720 mmHg 44%
    17:00 +20°C° 0 mm 6 m/S 720 mmHg 51%
    18:00 +17°C° 0 mm 5 m/S 720 mmHg 58%
    19:00 +17°C° 0 mm 4 m/S 721 mmHg 66%
    20:00 +16°C° 0 mm 3 m/S 722 mmHg 74%
    21:00 +15°C° 0 mm 2 m/S 722 mmHg 81%
    22:00 +15°C° 0 mm 2 m/S 723 mmHg 82%
    23:00 +14°C° 0 mm 2 m/S 723 mmHg 83%

    Morgen, 26 April, Freitag

    Zeit Temperatur Niederschläge Wind Luftdruck Luftfeuchtigkeit
    00:00 +14°C° 0 mm 2 m/S 723 mmHg 84%
    01:00 +14°C° 0 mm 2 m/S 723 mmHg 84%
    02:00 +13°C° 0 mm 2 m/S 723 mmHg 83%
    03:00 +13°C° 0 mm 2 m/S 723 mmHg 83%
    04:00 +13°C° 0 mm 2 m/S 724 mmHg 82%
    05:00 +13°C° 0 mm 1 m/S 724 mmHg 81%
    06:00 +13°C° 0 mm 1 m/S 724 mmHg 79%
    07:00 +14°C° 0 mm 1 m/S 725 mmHg 73%
    08:00 +16°C° 0 mm 2 m/S 725 mmHg 68%
    09:00 +17°C° 0 mm 2 m/S 725 mmHg 62%
    10:00 +18°C° 0 mm 2 m/S 725 mmHg 59%
    11:00 +18°C° 0 mm 2 m/S 725 mmHg 57%
    12:00 +19°C° 0 mm 3 m/S 725 mmHg 54%
    13:00 +20°C° 0 mm 3 m/S 725 mmHg 53%
    14:00 +20°C° 0 mm 4 m/S 725 mmHg 51%
    15:00 +21°C° 0 mm 4 m/S 724 mmHg 49%
    16:00 +20°C° 0 mm 4 m/S 724 mmHg 51%
    17:00 +19°C° 0 mm 4 m/S 724 mmHg 54%
    18:00 +18°C° 0 mm 3 m/S 724 mmHg 57%
    19:00 +17°C° 0 mm 3 m/S 725 mmHg 60%
    20:00 +16°C° 0 mm 2 m/S 725 mmHg 64%
    21:00 +15°C° 0 mm 1 m/S 726 mmHg 67%
    22:00 +14°C° 0 mm 1 m/S 725 mmHg 70%
    23:00 +14°C° 0 mm 1 m/S 725 mmHg 73%

    übermorgen, 27 April, Samstag

    Zeit Temperatur Niederschläge Wind Luftdruck Luftfeuchtigkeit
    00:00 +13°C° 0 mm 1 m/S 725 mmHg 75%
    01:00 +13°C° 0 mm 1 m/S 725 mmHg 76%
    02:00 +12°C° 0 mm 1 m/S 724 mmHg 77%
    03:00 +12°C° 0 mm 1 m/S 724 mmHg 78%
    04:00 +12°C° 0 mm 1 m/S 724 mmHg 77%
    05:00 +12°C° 0 mm 1 m/S 724 mmHg 75%
    06:00 +12°C° 0 mm 1 m/S 724 mmHg 74%
    07:00 +14°C° 0 mm 1 m/S 725 mmHg 65%
    08:00 +16°C° 0 mm 2 m/S 725 mmHg 56%
    09:00 +18°C° 0 mm 2 m/S 725 mmHg 47%
    10:00 +19°C° 0 mm 3 m/S 725 mmHg 43%
    11:00 +21°C° 0 mm 3 m/S 725 mmHg 38%
    12:00 +22°C° 0 mm 4 m/S 725 mmHg 33%
    13:00 +23°C° 0 mm 4 m/S 725 mmHg 33%
    14:00 +23°C° 0 mm 4 m/S 725 mmHg 33%
    15:00 +25°C° 0 mm 5 m/S 724 mmHg 32%
    16:00 +22°C° 0 mm 5 m/S 724 mmHg 37%
    17:00 +21°C° 0 mm 5 m/S 724 mmHg 41%
    18:00 +20°C° 0 mm 4 m/S 723 mmHg 46%
    19:00 +18°C° 0 mm 3 m/S 724 mmHg 50%
    20:00 +17°C° 0 mm 2 m/S 724 mmHg 55%
    21:00 +16°C° 0 mm 1 m/S 724 mmHg 59%
    22:00 +15°C° 0 mm 1 m/S 724 mmHg 61%
    23:00 +15°C° 0 mm 1 m/S 723 mmHg 62%

    28 April, Sonntag

    Zeit Temperatur Niederschläge Wind Luftdruck Luftfeuchtigkeit
    00:00 +14°C° 0 mm 1 m/S 723 mmHg 64%
    01:00 +14°C° 0 mm 1 m/S 723 mmHg 64%
    02:00 +14°C° 0 mm 1 m/S 722 mmHg 65%
    03:00 +13°C° 0 mm 0 m/S 722 mmHg 66%
    04:00 +13°C° 0 mm 0 m/S 722 mmHg 66%
    05:00 +13°C° 0 mm 0 m/S 722 mmHg 66%
    06:00 +15°C° 0 mm 1 m/S 722 mmHg 66%
    07:00 +18°C° 0 mm 1 m/S 722 mmHg 57%
    08:00 +19°C° 0 mm 2 m/S 722 mmHg 47%
    09:00 +23°C° 0 mm 2 m/S 723 mmHg 38%
    10:00 +24°C° 0 mm 2 m/S 722 mmHg 34%
    11:00 +26°C° 0 mm 2 m/S 722 mmHg 31%
    12:00 +27°C° 0 mm 3 m/S 722 mmHg 28%
    13:00 +28°C° 0 mm 4 m/S 721 mmHg 28%
    14:00 +28°C° 0 mm 4 m/S 721 mmHg 29%
    15:00 +28°C° 0 mm 5 m/S 720 mmHg 30%
    16:00 +27°C° 0 mm 4 m/S 720 mmHg 34%
    17:00 +25°C° 0 mm 4 m/S 720 mmHg 38%
    18:00 +24°C° 0 mm 3 m/S 719 mmHg 42%
    19:00 +21°C° 0 mm 2 m/S 720 mmHg 47%
    20:00 +21°C° 0 mm 1 m/S 720 mmHg 52%
    21:00 +19°C° 0 mm 1 m/S 720 mmHg 58%
    22:00 +19°C° 0 mm 1 m/S 720 mmHg 59%
    23:00 +18°C° 0 mm 1 m/S 720 mmHg 60%

    29 April, Montag

    Zeit Temperatur Niederschläge Wind Luftdruck Luftfeuchtigkeit
    00:00 +18°C° 0 mm 1 m/S 720 mmHg 62%
    01:00 +18°C° 0 mm 1 m/S 719 mmHg 63%
    02:00 +16°C° 0 mm 1 m/S 719 mmHg 65%
    03:00 +16°C° 0 mm 1 m/S 719 mmHg 66%
    04:00 +16°C° 0 mm 1 m/S 719 mmHg 68%
    05:00 +15°C° 0 mm 0 m/S 719 mmHg 71%
    06:00 +15°C° 0 mm 0 m/S 719 mmHg 73%
    07:00 +17°C° 0 mm 0 m/S 719 mmHg 66%
    08:00 +20°C° 0 mm 1 m/S 719 mmHg 58%
    09:00 +22°C° 0 mm 1 m/S 720 mmHg 51%
    10:00 +23°C° 0 mm 2 m/S 720 mmHg 48%
    11:00 +25°C° 0 mm 2 m/S 720 mmHg 45%
    12:00 +26°C° 0 mm 3 m/S 720 mmHg 41%
    13:00 +26°C° 0 mm 3 m/S 719 mmHg 42%
    14:00 +26°C° 0 mm 4 m/S 719 mmHg 43%
    15:00 +26°C° 0 mm 4 m/S 718 mmHg 43%
    16:00 +25°C° 0 mm 4 m/S 718 mmHg 47%
    17:00 +22°C° 0 mm 4 m/S 718 mmHg 50%
    18:00 +21°C° 0 mm 3 m/S 718 mmHg 54%
    19:00 +20°C° 0 mm 2 m/S 719 mmHg 58%
    20:00 +19°C° 0 mm 2 m/S 719 mmHg 62%
    21:00 +19°C° 0 mm 1 m/S 720 mmHg 66%
    22:00 +19°C° 0 mm 1 m/S 720 mmHg 69%
    23:00 +16°C° 0 mm 0 m/S 719 mmHg 71%

    30 April, Dienstag

    Zeit Temperatur Niederschläge Wind Luftdruck Luftfeuchtigkeit
    00:00 +16°C° 0 mm 0 m/S 719 mmHg 74%
    01:00 +16°C° 0 mm 0 m/S 719 mmHg 75%
    02:00 +15°C° 0 mm 0 m/S 719 mmHg 76%
    03:00 +15°C° 0 mm 1 m/S 718 mmHg 77%
    04:00 +16°C° 0 mm 1 m/S 718 mmHg 77%
    05:00 +16°C° 0 mm 1 m/S 718 mmHg 76%
    06:00 +15°C° 0 mm 0 m/S 718 mmHg 76%
    07:00 +19°C° 0 mm 1 m/S 719 mmHg 67%
    08:00 +20°C° 0 mm 1 m/S 719 mmHg 59%
    09:00 +22°C° 0 mm 1 m/S 719 mmHg 50%
    10:00 +23°C° 0.2 mm 2 m/S 719 mmHg 46%
    11:00 +25°C° 0.2 mm 2 m/S 719 mmHg 43%
    12:00 +26°C° 0.2 mm 3 m/S 719 mmHg 39%
    13:00 +27°C° 0 mm 3 m/S 718 mmHg 38%
    14:00 +27°C° 0 mm 4 m/S 718 mmHg 38%
    15:00 +28°C° 0 mm 4 m/S 717 mmHg 38%
    16:00 +26°C° 0 mm 4 m/S 717 mmHg 41%
    17:00 +25°C° 0 mm 3 m/S 717 mmHg 45%
    18:00 +24°C° 0 mm 3 m/S 717 mmHg 49%
    19:00 +23°C° 0.1 mm 2 m/S 717 mmHg 56%
    20:00 +21°C° 0.1 mm 1 m/S 717 mmHg 62%
    21:00 +18°C° 0.1 mm 0 m/S 717 mmHg 68%
    22:00 +20°C° 0.1 mm 1 m/S 717 mmHg 68%
    23:00 +19°C° 0.1 mm 1 m/S 717 mmHg 68%
    Mehr zeigen